Jerez De La Frontera, Spain

6:10 AM CET on February 10, 2016 (GMT +0100)
Jerez

Weather History for LEJR - December, 2012

Change the Weather History Date:

Wednesday, December 19, 2012

  Actual Average Record
Temperature  
Mean Temperature 57 °F -  
Max Temperature 64 °F 59 °F 74 °F (2015)
Min Temperature 50 °F 41 °F 35 °F (1998)
Degree Days  
Heating Degree Days 8    
Growing Degree Days 7 (Base 50)    
Moisture  
Dew Point 53 °F    
Average Humidity 91    
Maximum Humidity 100    
Minimum Humidity 64    
Precipitation  
Precipitation 0.00 in 0.13 in - ()
Sea Level Pressure  
Sea Level Pressure 30.17 in    
Wind  
Wind Speed 3 mph ()    
Max Wind Speed 9 mph    
Max Gust Speed 17 mph    
Visibility 4.3 miles    
Events Fog    
Averages and records for this station are not official NWS values.
T = Trace of Precipitation, MM = Missing Value Source: Averaged Metar Reports

Daily Weather History Graph

Daily Weather History Graph

Search for Another Location

Airport or City:

Trip Planner

Search our weather history database for the weather conditions in past years. The results will help you decide how hot, cold, wet, or windy it might be!

Date:

Astronomy

Dec. 19, 2012 Rise Set
Actual Time 8:32 AM CET 6:10 PM CET
Civil Twilight 8:03 AM CET 6:39 PM CET
Nautical Twilight 7:30 AM CET 7:12 PM CET
Astronomical Twilight 6:59 AM CET 7:43 PM CET
Moon 12:44 PM CET (12/19) 12:13 AM CET (12/19)
Length of Visible Light 10h 36m
Length of Day
9h 38m
Waxing Crescent, 42% of the Moon is Illuminated
Dec 19
Waxing Crescent
Dec 20
First Quarter
Dec 28
Full
Jan 5
Last Quarter
Jan 11
New

Hourly Weather History & Observations

Time (CET) Temp. Dew Point Humidity Pressure Visibility Wind Dir Wind Speed Gust Speed Precip Events Conditions
1:00 AM 51 °F 51 °F 99% 30.21 in 0 mi WNW 2.3 mph - - Fog Partial Fog
5:00 AM 51.8 °F 51.8 °F 100% 30.15 in 0.1 mi South 3.5 mph - N/A Fog Fog
5:30 AM 51.8 °F 51.8 °F 100% 30.15 in 0.1 mi Variable 2.3 mph - N/A Fog Fog
6:00 AM 51.8 °F 51.8 °F 100% 30.15 in 0.1 mi SW 3.5 mph - N/A Fog Fog
6:30 AM 51.8 °F 51.8 °F 100% 30.15 in 0.2 mi Variable 1.2 mph - N/A Fog Fog
7:00 AM 52 °F 52 °F 98% 30.17 in 0 mi SSW 2.3 mph - - Fog Heavy Fog
7:00 AM 51.8 °F 51.8 °F 100% 30.15 in 0.1 mi Variable 2.3 mph - N/A Fog Fog
7:30 AM 51.8 °F 51.8 °F 100% 30.15 in 0.2 mi Variable 1.2 mph - N/A Fog Fog
8:00 AM 51.8 °F 51.8 °F 100% 30.18 in 0.3 mi Variable 1.2 mph - N/A Fog Fog
8:30 AM 51.8 °F 51.8 °F 100% 30.18 in 0.6 mi Variable 2.3 mph - N/A Fog Fog
9:00 AM 51.8 °F 51.8 °F 100% 30.18 in 0.6 mi South 3.5 mph - N/A Fog Fog
9:30 AM 51.8 °F 51.8 °F 100% 30.18 in 1.2 mi Variable 1.2 mph - N/A   Mist
10:00 AM 53.6 °F 53.6 °F 100% 30.18 in 3.1 mi SE 3.5 mph - N/A   Mostly Cloudy
10:30 AM 53.6 °F 53.6 °F 100% 30.21 in 2.5 mi Variable 1.2 mph - N/A   Mostly Cloudy
11:00 AM 55.4 °F 55.4 °F 100% 30.21 in 3.1 mi Calm Calm - N/A   Mostly Cloudy
11:30 AM 55.4 °F 55.4 °F 100% 30.21 in 3.7 mi Variable 1.2 mph - N/A   Mostly Cloudy
12:00 PM 55.4 °F 55.4 °F 100% 30.21 in 5.6 mi South 3.5 mph - N/A   Mostly Cloudy
12:30 PM 57.2 °F 57.2 °F 100% 30.18 in 6.2 mi Variable 2.3 mph - N/A   Mostly Cloudy
1:00 PM 59 °F 59 °F 100% 30.19 in 9 mi South 3.5 mph - -   Mostly Cloudy
1:00 PM 59.0 °F 57.2 °F 94% 30.18 in 6.2 mi South 3.5 mph - N/A   Mostly Cloudy
1:30 PM 60.8 °F 55.4 °F 82% 30.18 in 6.2 mi Variable 2.3 mph - N/A   Scattered Clouds
2:00 PM 62.6 °F 55.4 °F 77% 30.15 in 6.2 mi SSW 5.8 mph - N/A   Scattered Clouds
2:30 PM 62.6 °F 53.6 °F 72% 30.15 in 6.2 mi SW 8.1 mph - N/A   Scattered Clouds
3:00 PM 62.6 °F 53.6 °F 72% 30.15 in 6.2 mi SW 8.1 mph - N/A   Scattered Clouds
3:30 PM 62.6 °F 53.6 °F 72% 30.15 in 6.2 mi SW 9.2 mph - N/A   Scattered Clouds
4:00 PM 62.6 °F 51.8 °F 68% 30.15 in 6.2 mi SW 8.1 mph - N/A   Scattered Clouds
4:30 PM 64.4 °F 51.8 °F 64% 30.15 in 6.2 mi WSW 9.2 mph - N/A   Scattered Clouds
5:00 PM 62.6 °F 51.8 °F 68% 30.15 in 6.2 mi WSW 6.9 mph - N/A   Partly Cloudy
5:30 PM 60.8 °F 51.8 °F 72% 30.15 in 6.2 mi WSW 6.9 mph - N/A   Partly Cloudy
6:00 PM 59.0 °F 51.8 °F 77% 30.15 in 6.2 mi WSW 5.8 mph 17.3 mph N/A   Partly Cloudy
6:30 PM 57.2 °F 53.6 °F 88% 30.15 in 6.2 mi Variable 1.2 mph - N/A   Partly Cloudy
7:00 PM 56 °F 54 °F 93% 30.17 in 9 mi Calm Calm - -   Scattered Clouds
7:00 PM 57.2 °F 53.6 °F 88% 30.15 in 6.2 mi Calm Calm - N/A   Partly Cloudy
7:30 PM 55.4 °F 53.6 °F 94% 30.15 in 6.2 mi Variable 1.2 mph - N/A   Partly Cloudy
8:00 PM 55.4 °F 53.6 °F 94% 30.15 in 6.2 mi Variable 1.2 mph - N/A   Partly Cloudy
8:30 PM 55.4 °F 53.6 °F 94% 30.15 in 6.2 mi Variable 2.3 mph - N/A   Partly Cloudy
9:00 PM 55.4 °F 53.6 °F 94% 30.15 in 6.2 mi Variable 2.3 mph - N/A   Partly Cloudy
9:30 PM 55.4 °F 53.6 °F 94% 30.18 in 6.2 mi Variable 2.3 mph - N/A   Mostly Cloudy
10:00 PM 55.4 °F 53.6 °F 94% 30.15 in 6.2 mi Variable 2.3 mph - N/A   Mostly Cloudy
10:30 PM 55.4 °F 53.6 °F 94% 30.18 in 6.2 mi Variable 1.2 mph - N/A   Mostly Cloudy
11:00 PM 53.6 °F 53.6 °F 100% 30.18 in 6.2 mi Variable 2.3 mph - N/A   Mostly Cloudy